Wind_Speed
24 24 26 25 27 25 20 21 23 24 16 13 12 11 8 6 4 4 4 3 2 1 4 7 9 11 12 13 12 11 11 12 14 23 19 22 21 19 16 17 14 12 8
29 32 34 36 34 29 25 20 20 18 15 13 12 9 7 5 5 5 4 3 1 2 5 8 11 13 14 13 12 12 12 12 14 19 20 21 20 19 15 13 14 11 10
28 30 31 32 31 32 29 25 22 18 15 11 9 7 6 5 4 2 0 1 2 3 5 7 9 11 13 13 13 14 14 14 14 16 18 17 19 18 22 12 11 12 9
30 31 27 34 34 31 31 27 22 15 12 10 7 6 4 4 2 1 3 3 5 6 7 9 10 11 10 11 11 12 12 14 14 16 16 15 15 13 15 17 15 14 12
23 25 24 27 22 23 23 20 17 14 10 8 6 4 3 2 2 3 3 4 7 10 11 10 9 9 7 8 8 10 11 13 14 14 14 11 11 13 15 17 15 14 11
18 18 17 20 22 23 23 19 16 15 12 8 5 3 3 4 7 5 5 7 9 10 11 9 8 7 6 8 8 10 9 11 13 14 17 11 7 8 13 15 14 15 7
17 15 15 18 18 18 15 13 12 11 9 6 2 3 5 5 7 9 9 9 10 11 9 9 11 10 9 10 11 11 9 7 5 4 5 13 14 9 13 16 14 15 15
16 14 16 21 21 21 20 18 15 11 8 5 2 5 9 7 7 9 11 12 12 13 12 12 12 12 11 12 13 15 15 13 10 7 5 6 11 12 11 14 16 19 19
24 24 24 26 29 28 22 16 12 4 1 1 1 4 10 7 8 9 8 11 14 12 15 13 14 14 13 12 15 18 17 16 15 14 16 17 16 18 16 17 19 17 16
26 29 29 27 24 21 20 10 12 7 1 3 4 6 8 10 9 10 10 12 15 15 15 14 14 14 15 15 14 18 19 17 16 19 18 19 18 17 17 14 16 17 16
30 29 26 22 20 17 13 11 8 5 3 7 8 7 11 11 10 12 14 12 15 16 18 17 16 14 16 17 16 17 18 20 22 22 21 19 17 16 13 11 11 14 16
28 26 23 20 18 12 13 9 5 2 4 6 9 8 8 11 8 12 16 16 15 17 18 19 18 17 17 15 16 19 22 20 21 20 19 18 16 16 13 11 12 14 16
29 24 19 17 15 13 8 5 3 3 4 9 10 11 11 11 10 11 12 14 14 15 17 20 24 24 23 22 24 24 24 22 23 20 18 18 15 15 16 14 13 13 16
25 19 13 10 10 9 7 8 6 6 7 7 10 11 11 11 10 8 13 17 18 16 17 19 23 26 28 29 31 27 23 21 21 19 18 16 14 14 15 12 12 11 13
18 14 9 6 10 9 6 3 3 2 4 6 8 10 14 14 12 16 19 19 18 18 22 20 21 19 19 23 23 21 20 16 16 15 15 15 14 13 14 12 12 11 12
16 13 8 10 10 8 5 3 3 5 6 7 9 10 12 14 18 19 21 21 20 18 17 17 18 18 18 20 18 18 16 16 15 13 13 13 13 12 14 11 9 12 10
15 15 12 13 12 11 10 10 12 12 14 12 14 14 14 16 18 20 21 19 19 16 14 13 15 19 20 18 17 14 14 15 13 12 12 12 12 12 13 13 10 8 11
15 15 12 11 11 12 13 13 13 13 14 13 12 15 14 17 19 21 17 16 14 11 15 16 18 19 17 16 16 14 13 13 11 11 11 11 12 12 13 13 10 8 8
15 15 16 16 15 14 13 12 12 13 14 16 17 15 15 18 20 16 15 13 13 15 16 16 17 17 17 16 15 15 13 13 11 10 10 11 11 11 12 13 12 8 7
18 18 17 15 13 14 15 15 15 15 16 15 16 17 17 19 16 14 13 13 15 16 16 17 16 16 16 15 14 14 13 12 12 10 12 11 11 11 11 10 10 8 8
21 18 18 15 14 14 15 15 15 15 15 16 17 16 20 19 17 16 16 16 16 18 17 17 17 17 16 15 14 13 13 13 12 12 11 11 11 11 11 10 10 8 8
19 17 16 15 14 14 14 13 15 16 16 18 19 19 21 17 16 16 16 16 16 18 18 17 18 17 16 16 14 13 14 12 13 11 11 13 12 11 9 7 8 7 7
18 16 15 14 14 16 15 14 14 15 17 18 19 19 19 18 18 18 18 18 19 21 18 17 18 17 15 15 14 14 15 15 14 10 12 10 9 7 8 9 8 8 7
12 12 13 14 14 14 14 16 16 17 18 18 19 19 18 19 19 19 20 20 20 19 18 18 18 18 17 16 15 14 14 14 14 12 12 12 7 10 8 9 9 9 8
13 12 12 12 13 14 15 16 16 17 18 19 20 19 19 19 20 20 20 19 19 19 19 20 20 18 17 15 16 17 17 17 17 16 10 10 12 11 9 7 9 8 9
14 14 13 13 14 15 16 17 18 19 20 21 21 20 20 20 20 20 21 21 21 23 24 20 19 20 19 17 16 16 16 16 16 17 14 10 10 11 10 9 6 6 6
Wind_Direction
159 159 161 163 164 162 165 161 162 156 159 153 145 140 141 125 110 118 125 120 102 25 338 335 335 333 326 320 317 308 299 285 283 293 302 309 316 319 334 342 352 346 317
163 166 168 168 166 162 167 167 169 157 161 161 157 148 136 135 128 138 140 149 200 293 319 321 326 328 327 321 320 311 304 298 292 297 307 311 315 317 323 335 347 359 349
169 166 168 169 166 169 171 173 171 175 166 168 159 150 144 142 126 126 230 259 279 284 297 301 313 318 319 320 323 319 316 310 303 299 305 314 317 325 325 335 344 351 349
170 172 173 170 173 178 173 175 178 172 167 166 165 147 144 123 92 337 303 309 301 298 300 304 312 314 316 322 322 318 318 313 305 299 306 316 319 329 329 336 339 353 350
175 177 176 174 163 169 174 169 168 163 165 167 171 158 170 206 280 267 261 279 294 295 291 288 290 296 304 322 333 321 321 315 307 305 299 306 326 350 336 335 334 339 43
185 184 172 156 165 171 174 174 167 164 166 165 152 194 246 280 286 270 266 292 289 280 281 279 271 282 293 318 323 334 338 336 318 320 317 334 338 15 333 335 339 346 337
183 179 169 160 154 151 153 151 143 141 141 134 135 291 302 303 284 241 271 286 290 286 285 283 275 278 295 301 307 315 310 326 301 296 336 327 328 349 330 325 330 324 316
135 125 132 138 128 128 131 126 116 115 116 112 32 311 299 293 277 257 271 271 282 287 283 275 276 283 281 285 297 306 303 291 282 287 290 299 314 319 315 308 308 306 299
98 102 112 125 121 119 111 116 125 139 118 248 288 286 281 302 310 299 286 277 282 283 286 276 283 289 287 292 295 303 302 300 290 302 315 319 319 319 315 304 290 294 291
96 100 109 112 110 113 121 117 119 108 88 343 308 289 291 305 305 300 296 291 283 290 287 282 280 276 275 289 286 287 290 296 300 301 300 296 298 297 297 284 274 272 278
93 96 94 98 98 102 91 88 56 32 335 289 289 294 291 289 291 289 285 292 291 292 287 288 283 283 280 275 270 277 286 296 297 293 293 295 298 297 287 277 262 260 264
84 80 78 80 73 60 67 61 58 356 316 311 299 302 294 282 291 296 300 300 298 290 291 290 288 291 295 280 270 282 284 286 288 290 287 289 299 299 287 277 268 264 260
78 73 68 68 62 58 24 39 31 25 353 304 315 303 300 310 306 305 311 305 305 301 294 295 295 300 294 285 281 282 278 272 276 280 282 285 288 287 287 282 272 267 267
61 57 62 49 61 44 25 3 346 1 345 330 309 309 309 305 311 320 315 306 300 304 299 299 292 289 288 288 279 274 268 266 267 272 275 279 284 285 281 273 271 270 272
65 61 39 37 57 53 44 345 345 342 327 301 308 308 305 308 311 312 311 306 306 306 306 301 298 298 295 282 272 267 268 264 262 264 268 273 275 280 277 268 271 265 267
46 51 23 28 33 16 359 347 338 346 342 332 332 324 304 309 317 314 313 312 316 317 304 297 296 296 288 278 278 278 267 264 266 265 265 266 267 268 273 264 268 268 268
43 34 28 26 17 0 349 347 347 346 348 345 336 332 329 321 320 315 317 320 320 317 297 293 289 280 279 289 278 277 276 270 269 263 259 260 262 262 262 255 262 268 274
31 24 20 18 13 0 354 351 351 339 330 334 338 331 329 330 323 321 317 320 317 311 292 282 275 276 282 287 291 280 280 277 268 263 257 255 255 253 260 251 253 260 280
29 17 14 13 9 354 348 343 343 337 339 337 333 332 329 330 328 327 320 301 299 299 287 285 283 281 282 281 286 276 276 277 265 264 256 252 253 250 250 248 253 264 284
16 13 14 6 356 356 352 346 344 343 334 328 325 326 328 327 323 321 314 309 299 288 287 286 286 285 282 278 282 279 280 266 277 254 255 254 254 254 250 252 246 252 260
9 6 5 360 357 353 347 345 338 335 330 322 318 324 321 320 319 317 313 302 296 291 287 287 285 283 281 277 275 275 281 272 267 269 250 258 254 243 244 247 249 248 256
360 360 359 353 349 347 337 334 341 334 328 323 322 323 326 326 319 310 304 302 297 291 288 286 284 280 280 277 272 274 268 269 277 252 261 254 246 243 241 250 241 241 246
357 354 347 342 342 341 341 337 329 327 327 327 327 324 324 322 315 309 306 303 300 299 293 288 285 283 278 274 269 264 263 260 265 268 258 261 232 236 237 235 240 243 242
348 343 340 339 338 337 336 334 333 331 330 329 328 324 319 317 314 311 309 305 302 300 296 293 288 285 282 276 268 262 260 259 253 262 249 248 243 235 253 239 236 233 242
354 347 342 339 339 338 337 338 336 334 333 332 328 325 321 318 314 311 310 308 306 304 301 298 293 289 286 278 269 266 265 263 251 242 243 235 232 240 246 259 241 226 237
0 355 350 346 344 343 341 339 338 337 335 333 329 326 322 319 317 316 314 314 312 309 306 302 297 293 289 283 274 274 271 259 243 233 228 235 232 236 233 247 252 225 222
Height
761 767 775 781 786 794 802 801 803 803 815 819 819 819 823 823 822 823 823 822 823 822 824 824 822 821 819 816 813 812 809 807 801 795 793 791 785 781 773 773 768 765 764
755 762 770 776 780 784 794 805 809 809 815 818 819 821 821 824 822 823 821 820 820 820 820 822 820 819 817 815 811 809 805 804 801 795 793 790 786 784 775 770 769 764 762
757 763 769 773 774 781 791 800 804 812 812 819 820 821 822 823 823 823 822 819 818 818 817 819 816 815 813 812 810 809 805 802 798 794 790 787 786 785 785 768 769 764 760
756 762 770 770 774 783 784 794 805 809 813 817 820 820 824 822 823 823 823 822 820 819 818 818 817 815 811 809 806 805 802 800 796 793 789 786 786 783 785 779 768 765 761
762 765 767 770 774 785 791 798 802 806 814 818 820 820 822 821 820 820 819 819 819 819 818 816 813 812 809 807 804 802 800 798 793 789 785 778 777 784 789 782 774 768 762
764 768 772 771 778 785 792 800 803 806 811 817 819 822 821 819 818 819 819 818 817 814 813 811 810 807 806 803 801 799 799 796 794 793 794 792 779 775 787 785 777 772 766
764 769 772 775 780 787 796 802 805 808 813 817 820 824 822 819 819 819 817 815 815 815 811 809 808 806 805 803 799 797 793 791 789 789 789 799 789 777 785 784 779 776 771
764 769 772 777 783 787 792 798 805 812 814 815 816 818 822 817 815 813 815 813 812 812 809 806 805 803 802 800 799 796 795 792 789 788 783 783 789 784 782 783 780 776 770
763 768 773 777 782 787 797 801 802 809 813 813 813 813 820 814 813 814 811 810 810 805 806 801 801 799 800 797 798 795 794 792 791 783 782 780 779 779 777 778 776 773 767
767 772 775 781 785 790 790 804 802 806 812 813 814 814 813 811 811 813 812 807 804 801 800 795 793 792 792 792 791 793 790 788 787 784 778 777 775 774 772 772 772 770 766
773 777 783 786 791 793 798 799 804 807 810 813 812 807 809 809 806 809 810 804 801 797 796 789 787 785 785 784 784 788 786 785 784 780 775 772 770 768 767 766 767 766 763
781 786 791 791 795 801 796 800 803 807 809 809 811 805 804 808 799 804 804 803 799 796 792 789 785 782 780 778 780 779 779 780 778 775 771 768 766 765 762 761 762 760 759
784 791 797 795 795 797 810 806 805 804 804 810 805 803 802 801 800 797 797 797 795 791 789 785 783 779 778 776 774 772 774 774 772 769 766 763 762 762 760 758 757 755 753
795 801 802 806 800 801 805 809 808 804 805 805 808 805 802 799 796 794 792 794 792 785 783 777 777 773 772 771 771 768 767 765 765 762 760 758 757 758 755 753 752 750 748
801 805 817 817 805 803 806 814 810 807 806 806 805 802 801 798 793 793 792 789 783 779 778 775 773 767 764 767 765 762 759 758 758 757 755 753 753 753 751 749 749 747 745
813 811 821 813 810 813 813 810 808 806 804 802 799 797 798 793 790 788 788 783 776 774 772 770 769 767 763 764 760 756 753 753 752 752 750 749 748 749 748 746 745 744 742
819 817 816 813 811 811 812 810 803 800 798 795 798 795 791 789 786 785 781 775 773 770 771 766 764 768 764 759 755 752 749 748 748 747 746 745 745 745 744 742 741 742 739
820 821 820 817 814 811 809 806 802 801 799 796 792 791 789 786 783 779 776 770 768 768 769 766 764 764 759 755 751 748 746 744 743 742 741 741 741 741 740 738 738 738 737
825 825 817 812 810 813 811 808 804 802 797 794 792 790 785 782 778 774 773 770 767 766 768 764 760 757 754 750 747 744 741 740 739 737 736 736 737 737 736 735 735 736 736
824 821 819 816 815 812 810 808 804 800 798 795 793 790 785 781 776 772 770 767 766 765 763 759 755 752 749 746 744 740 737 735 734 732 732 732 733 733 732 732 732 733 733
823 822 821 821 817 814 813 809 807 803 800 797 793 787 785 780 771 768 766 765 762 760 757 753 750 747 744 742 739 736 733 732 729 728 728 728 729 729 730 730 730 731 731
827 825 823 823 821 817 817 813 806 804 801 796 790 784 778 773 769 767 764 761 758 755 752 748 745 742 739 736 734 731 729 727 724 724 724 725 725 725 726 727 728 729 729
830 828 828 827 823 818 814 811 808 805 799 793 787 780 776 771 767 763 759 756 753 749 746 742 739 736 733 730 727 725 724 722 720 720 721 721 721 722 724 725 726 726 727
836 834 830 826 823 819 815 811 806 801 796 790 785 779 774 769 764 760 756 752 748 744 740 736 732 728 726 723 721 719 718 716 717 717 718 719 719 720 722 722 723 723 724
838 835 831 827 823 819 814 810 805 800 794 788 782 777 772 767 761 757 752 747 743 738 734 729 725 721 718 715 713 712 710 710 712 713 714 715 716 717 719 720 720 721 721
839 835 831 826 822 818 813 808 803 797 792 786 780 775 769 764 758 753 748 743 738 732 727 722 717 713 710 707 705 704 703 704 706 709 710 711 713 715 716 717 719 719 719